Theta_e
329 329 329 329 329 328 327 327 326 325 326 326 326 326 325 324 324 324 324 318 323 324 324 324 323 322 321 320 319 319 319 318 317 317 316 316 316 314 314 313 313 312 311
329 328 328 328 328 328 327 326 325 325 324 324 324 325 325 325 325 325 324 322 321 325 324 325 324 323 323 322 321 320 320 319 318 317 316 316 315 314 314 313 312 312 310
329 327 328 327 328 328 326 325 324 324 323 323 322 323 323 324 323 323 324 324 322 319 324 324 325 325 324 324 323 322 321 320 319 317 317 316 315 314 313 313 312 311 310
330 328 327 327 328 327 324 322 322 321 321 320 320 320 320 320 320 321 322 321 322 322 320 324 325 325 325 325 325 324 323 321 320 319 317 316 316 315 314 313 312 311 310
331 329 328 328 327 324 321 320 319 318 317 317 316 316 318 317 317 316 318 319 319 320 321 321 320 321 325 324 325 326 325 323 322 320 318 317 316 315 315 314 313 312 311
329 328 329 328 326 321 321 319 316 316 316 315 312 311 315 316 316 317 316 316 317 317 318 319 319 318 319 324 324 325 326 326 324 321 320 318 317 316 315 314 313 312 311
328 326 326 325 326 322 320 319 318 316 314 314 311 314 314 315 315 315 315 315 315 315 315 316 316 317 318 321 323 324 325 327 326 324 322 320 318 317 316 315 314 313 312
329 326 325 324 323 321 320 319 317 314 312 313 309 308 304 311 315 314 313 313 314 315 313 312 312 313 315 316 317 323 324 325 326 326 324 322 320 318 317 317 315 314 312
329 326 325 324 324 322 320 320 318 314 311 312 311 306 299 298 307 314 312 313 312 311 312 312 311 310 312 313 315 317 320 323 323 325 326 324 323 320 319 317 316 315 314
330 329 326 325 324 323 320 320 320 317 314 311 302 305 309 306 303 302 304 306 306 308 309 309 310 309 309 309 309 308 311 316 318 320 322 323 323 324 321 319 317 316 314
330 330 328 326 324 324 322 321 320 318 316 314 308 307 302 304 305 299 300 305 307 308 306 307 309 308 308 308 305 306 309 311 312 314 316 318 320 322 323 321 318 317 315
324 324 325 325 326 324 323 322 321 320 317 315 313 312 306 304 299 299 297 300 302 307 307 304 304 305 306 306 304 303 305 309 310 311 312 314 316 318 320 320 321 318 315
320 321 322 322 322 322 320 320 319 318 317 315 313 312 312 310 309 306 301 302 301 306 306 307 303 302 303 304 305 300 302 305 308 308 309 310 313 314 316 318 319 318 315
311 311 311 314 315 316 317 316 316 316 317 315 314 313 312 311 310 308 306 304 301 303 305 305 302 303 304 302 302 300 301 302 303 306 307 308 309 311 313 315 316 317 315
305 306 307 308 309 310 311 312 313 313 312 312 312 312 311 312 311 309 309 307 304 299 301 306 305 302 302 301 300 301 300 300 303 304 304 305 306 308 310 312 314 315 315
301 302 302 303 304 305 307 308 308 310 310 310 309 310 310 310 310 310 308 307 306 303 299 305 306 305 298 296 296 296 297 296 299 301 302 302 303 304 306 309 311 313 314
299 298 298 299 300 300 302 302 303 304 304 305 306 306 305 306 306 306 307 307 305 304 300 302 305 306 296 294 293 293 294 293 294 296 297 299 300 301 302 304 306 310 311
297 297 297 297 297 297 298 298 298 300 300 300 302 303 302 302 302 302 302 303 303 303 301 298 301 302 301 296 295 292 290 290 291 293 296 297 298 298 299 300 302 304 306
294 295 295 295 295 296 295 296 296 296 297 298 298 299 299 299 297 297 298 298 299 300 300 298 297 300 300 289 288 287 287 287 288 290 294 295 295 296 297 298 299 302 299
292 293 293 293 293 293 294 294 294 293 294 295 296 295 295 295 294 294 294 294 295 295 295 295 296 296 297 290 286 287 285 286 287 287 289 290 291 292 293 296 300 296 296
290 291 290 290 291 291 292 291 290 290 290 291 291 292 292 291 289 291 292 292 292 292 292 292 292 293 294 290 284 287 285 288 286 286 285 285 286 287 288 292 294 294 294
289 288 288 288 288 290 291 291 290 288 288 288 288 289 290 288 290 291 291 292 292 290 288 289 289 289 290 291 291 287 286 284 282 285 283 283 285 285 286 288 293 294 294
287 286 287 287 287 288 290 290 289 287 287 287 288 288 288 288 288 288 289 290 290 291 292 290 287 288 288 289 289 288 285 285 284 284 283 281 284 283 286 287 292 293 294
285 285 285 286 286 286 288 288 288 286 286 287 287 287 287 287 288 287 287 286 287 287 288 288 288 288 288 288 287 287 287 285 283 283 284 280 283 283 284 286 292 292 292
283 283 283 283 284 284 287 287 287 285 285 285 286 286 286 286 287 288 286 286 286 286 289 290 291 291 291 290 290 287 284 282 281 280 283 282 282 280 279 283 288 292 292
281 282 281 282 282 283 286 287 287 285 283 283 284 285 285 286 288 288 285 285 283 284 285 285 286 287 287 286 288 286 285 282 280 278 282 279 278 278 275 276 277 283 287
Wind_Speed
4 4 4 4 4 4 4 3 3 4 4 4 4 5 5 6 6 4 2 12 10 11 11 12 12 11 12 12 12 11 12 12 11 11 10 10 10 9 9 9 9 7 8
5 5 5 5 4 4 4 4 4 5 5 5 6 7 7 6 7 7 5 7 11 11 13 14 14 14 14 14 14 14 14 14 13 12 12 12 11 12 12 11 11 9 8
6 6 5 5 5 5 5 5 6 6 5 5 7 7 6 7 7 8 6 6 8 14 13 17 17 17 17 16 16 16 16 16 15 15 15 15 14 14 14 13 13 12 10
8 7 6 6 4 3 4 5 6 6 6 7 6 6 6 6 7 8 7 7 7 7 15 19 19 20 20 19 19 19 18 18 18 18 19 19 19 18 18 17 16 15 13
9 8 6 6 5 5 5 5 5 3 6 6 5 6 7 7 8 8 11 11 11 9 8 13 21 19 20 24 23 22 23 22 22 22 22 21 22 22 21 20 20 18 17
6 6 7 7 4 6 6 5 5 5 7 5 4 6 8 8 8 9 10 10 11 12 12 11 8 12 21 25 27 26 26 26 25 26 26 26 25 25 24 24 23 22 20
8 8 6 6 5 6 7 6 8 9 7 7 5 8 9 12 12 11 9 10 13 12 12 11 9 8 9 26 28 30 29 29 28 28 29 29 29 28 27 27 26 25 24
8 8 8 7 8 5 8 9 7 5 3 4 4 2 4 4 9 12 10 11 15 10 11 13 12 14 12 10 14 29 32 32 31 30 30 31 31 31 30 29 28 27 26
9 9 9 8 8 8 7 8 8 10 9 5 8 4 2 5 4 5 11 9 12 9 10 11 13 14 14 12 14 16 27 31 33 32 31 30 32 34 33 33 31 29 29
9 9 10 9 9 7 9 9 8 10 9 8 1 7 10 3 4 6 2 4 6 10 12 9 10 13 13 11 13 16 19 24 29 31 32 30 32 33 35 35 33 32 31
9 9 9 9 9 7 9 10 9 10 8 9 6 4 7 8 8 8 11 7 7 7 9 9 10 10 12 12 10 15 22 26 27 27 30 31 32 34 33 36 36 35 33
4 3 4 4 6 7 9 9 10 11 10 10 8 8 7 6 4 7 9 8 10 9 9 9 9 10 10 10 14 20 23 27 29 31 31 31 32 34 35 36 37 37 34
5 6 7 7 6 6 5 4 5 7 8 8 9 8 8 9 8 7 7 10 10 8 6 7 8 9 10 11 12 18 23 26 27 28 30 31 33 34 34 35 37 38 36
6 9 8 8 9 9 8 8 5 6 7 8 11 10 9 8 9 9 10 9 15 13 13 12 7 10 10 10 13 16 14 19 26 29 30 30 31 33 34 34 37 36 36
6 7 8 8 9 9 8 9 7 8 8 8 9 10 9 9 8 9 10 9 10 18 21 10 8 8 8 8 11 11 12 16 24 27 26 27 29 30 33 35 35 37 37
9 8 8 8 8 8 8 9 8 8 9 8 8 12 11 9 9 8 8 8 10 12 18 15 11 6 6 6 8 10 12 15 16 21 24 25 27 29 30 33 34 37 36
9 9 9 9 9 9 9 8 9 10 10 11 10 11 12 12 9 9 9 9 10 10 15 21 12 11 5 7 7 9 9 10 9 19 24 26 27 27 28 29 32 34 31
8 8 9 9 9 10 9 9 10 10 11 11 12 12 13 9 12 14 11 12 12 12 11 20 18 12 13 9 8 8 8 6 8 14 21 24 24 25 26 27 29 33 23
9 9 8 8 9 9 9 9 9 10 11 11 12 12 13 13 14 12 13 12 11 10 11 12 18 12 11 1 4 4 4 6 6 15 21 23 23 22 23 27 29 25 25
10 10 9 10 10 10 10 9 10 11 12 11 12 12 12 13 13 12 11 12 11 11 12 12 13 14 11 2 2 5 6 6 9 7 13 16 16 17 20 23 17 19 20
8 9 9 9 9 8 7 8 11 11 12 13 12 12 11 13 16 17 12 14 12 11 10 11 12 12 12 6 6 4 7 7 5 6 5 6 7 7 8 19 11 18 23
7 7 8 9 9 8 13 15 14 11 12 12 13 13 12 11 15 20 22 24 20 13 13 10 11 13 15 10 5 6 7 4 5 5 5 7 5 7 6 5 11 19 24
9 9 10 10 11 11 15 18 18 11 12 12 13 13 12 9 12 13 18 19 19 18 19 14 14 14 14 10 7 8 8 7 8 3 4 4 4 7 4 7 15 21 25
10 10 11 11 11 10 18 20 19 13 12 14 14 13 14 16 14 15 15 15 14 12 11 9 12 14 12 10 10 10 12 8 0 2 3 3 2 1 3 3 21 25 23
11 10 10 12 12 12 19 21 18 11 12 15 14 15 14 16 20 22 14 14 13 11 10 17 20 23 23 23 17 9 6 4 3 2 4 1 1 3 4 2 7 21 22
11 9 12 12 15 14 18 20 17 10 14 12 14 13 14 16 21 21 13 11 14 14 9 11 8 12 12 11 16 7 2 5 2 1 2 2 2 2 2 3 6 3 8
Wind_Direction
191 192 194 191 194 190 189 193 202 197 211 218 223 242 235 234 240 245 236 189 222 214 215 216 219 211 217 214 215 212 209 210 206 205 200 198 195 203 198 190 181 178 181
201 202 198 206 206 205 206 208 210 215 221 223 228 233 240 241 245 247 246 184 209 238 224 229 230 227 230 229 226 222 222 219 219 219 215 214 211 209 209 206 202 194 190
211 216 212 215 215 208 215 221 219 230 238 234 247 237 243 253 260 257 257 261 201 219 238 236 237 238 239 238 237 232 232 227 223 221 223 223 220 221 219 218 216 211 202
227 213 225 223 219 220 213 228 226 224 233 237 240 241 249 257 258 260 261 256 254 245 213 227 236 241 241 245 240 241 237 236 232 228 227 224 223 219 220 215 217 217 211
228 236 232 236 196 220 220 225 240 243 238 245 253 255 246 246 242 241 242 242 242 247 252 218 222 234 241 240 240 238 238 235 231 228 228 229 227 227 224 221 217 216 216
224 236 247 245 201 233 237 229 239 229 252 256 252 254 257 249 246 244 244 243 242 240 242 246 239 231 231 237 242 245 240 239 233 230 228 225 229 230 227 223 220 217 217
208 216 228 251 238 221 241 224 230 244 247 244 276 261 252 244 239 239 236 238 244 233 239 238 237 242 236 232 237 242 246 246 243 235 231 227 225 228 231 229 225 220 217
207 211 218 226 228 221 230 234 217 235 248 208 229 312 301 289 236 239 236 240 244 233 234 230 234 237 241 243 236 237 241 246 248 247 241 234 229 226 225 230 229 228 223
215 211 216 223 229 228 235 236 230 218 237 225 207 191 231 242 307 217 237 235 246 245 242 235 233 238 241 242 243 240 241 241 246 251 248 246 238 231 227 224 225 226 227
226 221 224 224 228 224 231 236 234 230 232 243 104 235 254 230 276 294 320 267 239 250 238 240 238 237 234 241 235 240 250 247 247 247 252 251 251 242 232 228 225 224 225
221 226 224 230 233 231 235 237 236 230 224 235 209 195 229 245 251 244 277 251 242 234 240 244 239 234 239 233 232 241 238 241 245 246 248 250 251 250 249 234 229 222 221
339 340 336 284 257 248 244 243 243 243 233 232 235 234 214 221 209 211 250 269 259 264 243 235 222 233 233 231 235 235 236 240 242 245 246 247 249 248 244 247 238 227 218
336 339 335 315 304 294 290 283 274 258 249 245 242 242 244 240 241 240 241 265 277 278 263 235 225 233 235 236 238 228 236 239 243 247 250 250 249 249 247 246 248 234 222
0 350 338 329 322 318 309 297 292 287 280 263 254 248 252 244 236 230 244 264 278 275 269 255 211 225 227 228 235 229 241 235 242 249 250 252 254 252 250 248 242 241 227
2 346 344 336 329 322 317 310 294 284 286 282 274 263 256 263 256 247 242 237 256 285 283 276 271 220 228 228 229 233 236 237 239 246 252 253 254 255 255 252 245 237 223
2 355 352 345 337 332 327 319 306 300 296 288 283 285 282 277 268 266 258 253 250 258 277 282 275 276 220 232 235 232 237 240 246 249 253 255 257 257 258 260 254 239 228
357 352 347 339 335 331 331 323 314 307 302 298 292 285 282 280 277 275 270 264 255 249 264 282 277 281 238 227 232 229 238 243 245 246 252 258 263 264 262 264 265 249 219
351 344 342 337 332 328 326 321 315 313 307 301 297 292 285 287 284 282 280 274 270 268 266 271 280 274 266 227 241 231 237 240 247 252 256 262 266 268 268 266 269 270 186
343 337 332 327 321 317 315 314 311 311 304 298 297 295 294 294 289 289 286 284 280 277 277 279 281 281 276 183 237 239 227 239 243 249 258 263 266 265 267 270 267 198 170
332 333 331 325 323 319 314 310 324 314 305 299 298 293 290 288 287 291 288 286 285 281 276 272 272 281 279 265 228 251 255 227 251 234 247 248 253 257 259 264 207 169 177
310 311 311 307 308 307 302 321 309 303 298 297 292 288 283 285 288 282 281 281 278 277 278 281 279 280 277 258 233 230 245 263 246 228 242 235 234 235 244 256 203 188 185
308 307 299 296 298 297 305 303 303 298 293 293 293 291 287 285 289 289 288 281 277 281 281 281 280 277 281 280 271 239 243 245 272 194 224 247 212 235 225 235 210 195 195
312 305 300 300 297 296 296 298 301 297 293 287 287 289 290 284 288 289 291 285 283 280 275 281 280 278 284 288 292 281 248 235 250 193 201 264 182 235 215 212 210 195 175
311 308 304 301 297 296 300 303 304 297 289 287 288 291 291 294 294 297 296 293 289 281 268 268 271 282 283 284 267 264 268 246 70 132 192 251 149 210 160 180 179 168 164
311 308 303 302 298 297 306 307 309 304 297 299 300 297 298 300 300 303 297 294 294 291 279 273 274 283 289 294 294 286 231 199 196 157 190 122 52 62 18 46 173 159 155
300 305 305 306 306 302 304 308 314 307 302 305 303 303 294 293 295 303 304 297 297 303 304 297 277 288 293 293 292 262 213 214 100 113 150 112 83 101 43 15 28 52 143